User: anonymous   Login
Location: Unspecified
(41.1637°N, 0.0000°E)
Time: 20:39:37
(UTC+00:00)
Language:

nSIGHT-1 - Orbit

View from above orbital plane
View from above orbital plane
View from above satellite
View from above satellite

Ground track
Ground track

The orbit data is extracted from the following two-line orbital elements,

1 42726U 98067MF  19287.39896107  .00030837  00000-0  19445-3 0  9998
2 42726  51.6327  64.7396 0004778 276.1255  83.9200 15.76357908136357
Epoch (UTC): 14 October 2019 09:34:30
Eccentricity: 0.0004778
inclination: 51.6327°
perigee height: 337 km
apogee height: 344 km
right ascension of ascending node: 64.7396°
argument of perigee: 276.1255°
revolutions per day: 15.76357908
mean anomaly at epoch: 83.9200°
orbit number at epoch: 13635

The dashed part of the orbit path shows where the satellite is in the earth's shadow,  

DLR